EHI
0 0 0 0 0 0 0 0 0 0 0 0 0 0 0 0 0 0 0 0 0 0 0 0 0 0 0 0 0 0 0 0 0 0 0 0 0 0 0 0 0 0 0
0 0 0 0 0 0 0 0 0 0 0 0 0 0 0 0 0 0 0 0 0 0 0 0 0 0 0 0 0 0 0 0 0 0 0 0 0 0 0 0 0 0 0
0 0 0 0 0 0 0 0 0 0 0 0 0 0 0 0 0 0 0 0 0 0 0 0 0 0 0 0 0 0 0 0 0 0 0 0 0 0 0 0 0 0 0
0 0 0 0 0 0 0 0 0 0 0 0 0 0 0 0 0 0 0 0 0 0 0 0 0 0 0 0 0 0 0 0 0 0 0 0 0 0 0 0 0 0 0
0 0 0 0 0 0 0 0 0 0 1 0 0 0 0 0 0 0 0 0 0 0 0 0 0 0 0 0 0 0 0 0 0 0 0 0 0 0 0 0 0 0 0
0 0 0 0 0 0 0 0 0 0 0 0 0 0 0 0 0 0 0 0 0 0 0 0 0 0 0 0 0 0 0 0 0 0 0 0 0 0 0 0 0 0 0
0 0 0 0 0 0 0 0 0 0 0 0 0 0 0 0 0 0 0 0 0 0 0 0 0 0 0 0 0 0 0 0 0 0 0 0 0 0 0 0 0 0 0
0 0 0 0 0 0 0 0 0 0 0 0 0 0 0 0 0 0 0 0 0 0 0 0 0 0 0 0 0 0 0 0 0 0 0 0 0 0 0 0 0 0 0
0 0 0 0 0 0 0 0 0 0 0 0 0 0 0 0 0 0 0 0 0 0 0 0 0 0 0 0 0 0 0 0 0 0 0 0 0 0 0 0 0 0 0
0 0 0 0 0 0 0 0 0 0 0 0 0 0 0 0 0 0 0 0 0 0 0 0 0 0 0 0 0 0 0 0 0 0 0 0 0 0 0 0 0 0 0
0 0 0 0 0 0 0 0 0 0 0 0 0 0 0 0 0 0 0 0 0 0 0 0 0 0 0 0 0 0 0 0 0 0 0 0 0 0 0 0 0 0 0
0 0 0 0 0 0 0 0 0 0 0 0 0 0 0 0 0 0 0 0 0 0 0 0 0 0 0 0 0 0 0 0 0 0 0 0 0 0 0 0 0 0 0
0 0 0 0 0 0 0 0 0 0 0 0 0 0 0 0 0 0 0 0 0 0 0 0 0 0 0 0 0 0 0 0 0 0 0 0 0 0 0 0 0 0 0
0 0 0 0 0 0 0 0 0 0 0 0 0 0 0 0 0 0 0 0 0 0 0 0 0 0 0 0 0 0 0 0 0 0 0 0 0 0 0 0 0 0 0
0 0 0 0 0 0 0 0 0 0 0 0 0 0 0 0 0 0 0 0 0 0 0 0 0 0 0 0 0 0 0 0 0 0 0 0 0 0 0 0 0 0 0
0 0 0 0 0 0 0 0 0 0 0 0 0 0 0 0 0 0 0 0 0 0 0 0 0 0 0 0 0 0 0 0 0 0 0 0 0 0 0 0 0 0 0
0 0 0 0 0 0 0 0 0 0 0 0 0 0 0 0 0 0 0 0 0 0 0 0 0 0 0 0 0 0 0 0 0 0 0 0 0 0 0 0 0 0 0
0 0 0 0 0 0 0 0 0 0 0 0 0 0 0 0 0 0 0 0 0 0 0 0 0 0 0 0 0 0 0 0 0 0 0 0 0 0 0 0 0 0 0
0 0 0 0 0 0 0 0 0 0 0 0 0 0 0 0 0 0 0 0 0 0 0 0 0 0 0 0 0 0 0 0 0 0 0 0 0 0 0 0 0 0 0
0 0 0 0 0 0 0 0 0 0 0 0 0 0 0 0 0 0 0 0 0 0 0 0 0 0 0 0 0 0 0 0 0 0 0 0 0 0 0 0 0 0 0
0 0 0 0 0 0 0 0 0 0 0 0 0 0 0 0 0 0 0 0 0 0 0 0 0 0 0 0 0 0 0 0 0 0 0 0 0 0 0 0 0 0 0
0 0 0 0 0 0 0 0 0 0 0 0 0 0 0 0 0 0 0 0 0 0 0 0 0 0 0 0 0 0 0 0 0 0 0 0 0 0 0 0 0 0 0
0 0 0 0 0 0 0 0 0 0 0 0 0 0 0 0 0 0 0 0 0 0 0 0 0 0 0 0 0 0 0 0 0 0 0 0 0 0 0 0 0 0 0
0 0 0 0 0 0 0 0 0 0 0 0 0 0 0 0 0 0 0 0 0 0 0 0 0 0 0 0 0 0 0 0 0 0 0 0 0 0 0 0 0 0 0
0 0 0 0 0 0 0 0 0 0 0 0 0 0 0 0 0 0 0 0 0 0 0 0 0 0 0 0 0 0 0 0 0 0 0 0 0 0 0 0 0 0 0
0 0 0 0 0 0 0 0 0 0 0 0 0 0 0 0 0 0 0 0 0 0 0 0 0 0 0 0 0 0 0 0 0 0 0 0 0 0 0 0 0 0 0
Wind_Speed
0 0 0 0 0 0 1 1 1 1 1 1 2 2 2 2 1 1 1 2 2 3 4 5 5 5 4 4 4 4 4 4 5 6 6 7 6 7 7 7 7 7 7
1 0 0 0 1 1 1 1 1 2 2 2 2 2 2 2 2 1 1 2 2 3 5 5 5 5 5 5 5 5 5 5 6 6 6 7 7 7 7 7 7 7 8
1 1 1 1 1 1 1 2 2 1 1 1 2 2 2 2 2 2 2 2 2 3 4 5 5 5 5 5 6 6 6 6 6 6 6 7 8 8 8 8 9 9 9
1 1 1 1 1 1 1 1 1 1 1 1 1 2 2 2 2 2 1 2 2 1 2 4 5 6 6 7 7 7 7 7 7 7 7 7 8 8 9 10 10 10 10
1 1 1 1 1 1 1 2 1 1 1 1 2 2 2 2 3 2 2 1 2 2 2 3 4 6 7 8 8 8 8 8 8 8 8 8 9 9 10 10 10 10 11
2 1 1 2 1 1 1 1 1 1 1 1 2 2 2 3 2 2 2 1 1 2 2 2 3 4 6 8 9 9 9 9 9 9 9 9 9 10 11 11 11 11 11
2 2 2 2 2 2 2 2 1 1 1 1 1 2 2 2 2 1 1 1 2 2 2 2 2 2 2 6 8 9 10 10 9 9 10 10 10 11 12 12 12 12 12
2 2 2 2 2 2 2 2 1 1 1 1 0 0 1 2 1 2 1 2 2 1 2 2 2 2 2 2 5 9 10 10 10 10 11 11 12 12 12 13 13 12 12
3 3 3 3 3 2 3 3 3 2 2 2 1 1 1 2 2 2 3 2 2 2 2 2 2 2 2 2 3 6 9 10 11 11 11 12 13 13 13 13 12 12 12
3 3 3 4 3 3 3 3 3 3 2 2 2 2 2 1 1 2 2 2 2 3 2 2 2 2 2 2 3 5 8 9 11 12 12 13 14 14 13 13 11 12 12
3 3 3 3 3 3 3 3 3 3 2 3 2 2 2 2 2 2 3 3 2 3 3 3 2 2 3 2 2 4 7 9 11 12 13 13 13 13 12 12 12 12 12
2 3 3 2 3 3 4 3 3 4 4 3 2 2 2 2 2 2 3 3 3 3 3 2 2 2 2 2 3 5 7 9 10 11 12 12 12 12 12 13 12 12 12
2 3 3 2 3 3 4 4 3 4 4 3 3 2 2 2 1 2 2 3 4 3 2 2 2 2 2 1 2 6 6 8 9 11 11 11 11 11 12 12 12 12 13
3 3 3 3 3 3 3 3 3 4 3 3 3 3 2 2 2 2 2 2 3 3 3 3 1 1 1 1 3 6 4 8 9 9 10 10 11 11 11 11 11 11 12
3 3 3 3 3 3 3 3 3 3 3 3 4 4 3 2 2 2 2 2 3 4 5 3 2 2 2 2 4 3 3 7 8 8 8 9 9 10 10 10 10 11 12
3 3 3 3 3 3 3 3 2 2 3 3 3 3 3 2 2 2 2 2 3 4 5 2 2 2 3 3 5 3 3 7 8 8 9 9 9 9 9 10 11 12 12
3 3 3 3 3 3 3 3 3 3 3 3 3 3 3 3 2 2 2 2 2 2 5 4 2 2 3 3 3 3 3 3 4 8 9 9 8 9 9 10 10 11 12
3 3 3 3 3 3 3 3 3 3 4 4 4 3 3 2 2 2 2 3 3 2 3 4 3 2 3 3 3 3 3 3 3 6 9 9 9 9 9 9 9 10 10
3 2 2 3 3 3 3 4 4 4 4 4 4 3 3 3 3 2 3 2 2 2 2 3 3 2 2 2 3 3 3 3 4 5 8 8 8 9 9 9 9 9 9
2 2 3 3 3 2 2 3 3 3 3 3 3 3 3 3 3 3 3 2 2 2 2 2 2 2 2 2 2 3 3 3 4 4 5 5 7 8 8 8 8 8 9
2 2 2 2 3 2 2 2 2 2 2 2 2 3 3 3 3 3 2 2 2 2 2 2 2 2 2 1 2 2 3 3 3 2 2 3 3 3 4 7 7 7 8
2 2 2 2 2 2 4 4 3 2 2 2 2 2 2 2 2 3 4 3 3 2 2 2 2 2 3 2 1 2 2 3 3 2 2 4 2 3 4 3 5 7 7
2 2 2 2 2 3 5 5 4 2 2 2 2 1 1 1 1 1 1 3 3 4 4 2 2 3 2 2 1 2 2 2 3 3 2 3 3 3 4 4 5 6 6
1 2 2 2 2 3 5 4 3 1 1 1 1 1 1 1 0 0 1 1 1 2 3 2 1 1 1 1 2 2 2 2 2 2 1 2 3 3 4 3 5 5 6
1 2 1 1 2 3 4 3 2 0 0 1 1 1 0 1 1 1 1 1 1 1 3 3 3 3 3 2 2 1 1 1 3 2 1 1 2 4 3 3 3 5 6
2 2 2 1 1 1 3 3 2 1 0 0 0 0 1 1 1 1 1 1 1 1 1 2 3 3 2 2 2 1 0 1 2 2 2 2 2 2 3 2 1 2 3
Wind_Direction
307 310 270 30 287 277 264 260 249 232 228 230 241 248 248 241 234 202 168 204 239 252 257 254 247 252 258 256 259 265 271 274 280 284 289 289 287 283 282 285 285 286 288
319 296 299 254 287 262 255 252 260 250 230 232 244 248 253 259 247 213 172 205 245 250 255 256 255 259 262 258 262 264 268 272 276 280 284 285 289 285 287 284 281 285 287
320 300 270 254 253 263 258 243 245 257 252 247 250 260 252 251 262 235 187 184 217 248 261 259 262 263 261 262 265 265 268 274 274 277 282 286 284 286 283 284 282 281 283
308 305 270 253 267 264 263 244 221 247 256 256 263 267 266 253 252 250 219 186 180 199 244 268 272 271 268 267 269 269 269 273 274 278 281 284 285 285 284 283 284 282 279
301 288 279 270 272 266 271 268 237 218 256 262 267 265 259 254 239 243 239 201 177 189 197 245 268 273 274 273 271 271 271 273 275 276 278 280 285 285 285 283 281 283 279
287 285 269 282 269 257 267 270 261 238 253 257 283 283 269 257 234 210 233 231 201 206 200 221 236 258 269 274 273 273 273 273 276 278 279 280 281 283 284 282 279 282 281
252 250 266 279 264 240 244 256 269 256 254 262 323 308 289 262 235 203 215 240 228 222 214 223 218 229 255 270 279 279 278 276 276 279 282 281 281 282 283 284 280 281 282
237 242 236 250 257 249 251 251 248 244 254 208 185 304 292 292 291 276 236 238 242 244 238 241 225 230 236 239 270 278 280 277 278 281 284 284 281 282 283 286 281 282 283
238 238 239 240 245 240 242 243 231 229 239 244 195 186 212 242 290 258 239 232 241 255 249 243 239 238 244 240 249 264 276 281 283 283 284 286 285 284 283 286 281 282 285
238 236 235 237 244 242 241 250 245 236 220 231 237 229 228 232 229 268 275 250 247 257 258 270 258 250 245 240 253 270 280 282 283 285 286 287 287 285 284 288 282 284 287
241 237 235 234 238 244 241 243 253 241 231 229 230 248 258 265 244 242 271 273 269 254 254 253 246 242 244 239 240 262 279 282 284 285 286 287 288 288 286 289 284 286 286
250 245 241 237 238 239 237 237 244 243 235 235 235 234 237 234 240 242 265 281 275 265 258 254 248 245 247 243 261 282 283 283 285 285 286 285 285 286 287 290 285 284 286
262 256 252 248 246 242 236 232 234 245 237 231 230 238 241 244 243 249 264 280 286 285 259 255 248 247 274 276 274 287 282 285 285 286 284 283 283 285 287 290 287 290 291
257 254 249 252 251 246 250 239 232 241 233 227 238 236 237 237 233 235 249 265 287 287 275 263 269 249 276 278 280 291 283 287 289 289 286 283 284 285 286 286 289 293 295
264 256 248 250 254 245 239 239 238 243 237 231 232 229 226 232 233 231 237 241 245 275 275 257 269 268 273 269 278 281 278 283 292 293 290 285 284 285 288 290 291 292 293
263 261 254 249 252 252 241 235 240 241 245 244 233 226 231 227 235 231 228 246 244 251 269 275 267 293 292 290 284 281 274 290 288 288 285 284 283 284 288 290 287 287 290
260 265 262 256 253 251 244 240 242 244 245 248 244 234 234 229 226 230 233 237 247 244 265 285 287 291 291 294 299 293 287 278 279 285 286 286 286 287 289 290 285 287 288
264 266 271 266 264 261 248 239 242 242 241 245 241 235 233 239 238 232 229 235 247 245 249 273 287 291 289 289 296 296 301 300 295 294 291 287 287 286 286 290 294 296 296
271 269 272 267 264 259 249 240 239 237 238 237 233 230 227 226 240 244 246 244 250 257 251 256 277 288 289 299 306 303 308 308 301 297 290 285 286 286 286 290 295 299 302
276 277 274 271 264 259 257 257 256 242 240 236 238 239 233 227 225 225 242 238 244 248 247 252 268 290 296 302 315 311 310 309 300 300 290 291 294 293 292 294 296 301 305
282 289 284 281 269 258 258 262 258 250 242 243 252 251 248 251 255 253 256 234 232 237 244 253 261 284 289 310 305 302 301 311 303 310 313 305 302 298 291 291 295 304 311
280 284 286 277 274 272 278 273 270 233 240 239 247 256 261 257 278 286 284 283 277 253 236 244 259 262 269 271 287 295 305 317 306 310 314 302 304 302 303 295 303 313 317
268 270 276 282 285 291 280 274 281 253 244 244 246 247 271 272 286 200 301 323 316 310 289 260 244 258 259 258 271 289 294 296 292 301 320 302 316 311 311 317 321 324 330
270 278 284 287 291 295 295 300 325 321 282 282 266 251 234 245 256 162 91 11 345 329 313 305 279 277 285 267 244 253 265 299 316 323 340 305 320 315 314 316 326 335 341
287 281 288 292 296 301 301 301 321 96 59 344 338 331 316 171 292 340 61 34 6 342 342 338 338 348 353 350 344 9 350 353 331 323 353 324 309 319 314 307 328 342 345
286 287 297 288 281 289 306 312 312 162 150 290 18 352 316 332 332 345 76 99 350 315 345 0 352 354 1 3 5 7 288 299 321 315 341 343 313 334 325 315 335 344 351